Location: DARK SKY Beskydy - Park tmavé oblohy, www.darkskybeskydy.cz
(49.4926°N, 18.5016°E)
Time: 11:58:11
(UTC+02:00)

Vanguard 1 - Pass Details

Date: 01 March 2024
Orbit: 653 x 3825 km, 34.2° (Epoch: 12 April)

Event Time Altitude Azimuth Distance (km) Brightness Sun altitude
Rises 02:35:43 0° 274° (W) 7,649 - -36.6°
Reaches altitude 10° 02:49:36 10° 242° (WSW) 6,927 - -34.8°
Maximum altitude 02:52:18 10° 235° (SW) 6,886 - -34.5°
Drops below altitude 10° 02:55:00 10° 228° (SW) 6,880 - -34.1°
Sets 03:08:43 0° 195° (SSW) 7,372 - -32.2°
